Погода в Львове

Погода в Львове : погода сейчас, прогноз погоды и архив. Всё, что Вы хотите узнать о погоде в Львове!

Поиск расширенной информации на нашем сайте:

Другие новости

Новости СМИ2

Главная страница сайта

Новости сайта

03.07.2017

Напоминаем, что на нашем специализированном сайте Метеоцентр.Азия вы можете получить высокодетализированные автоматические прогнозы погоды по пунктам России, СНГ и мира в авиационном формате (включающие направление и скорость ветра, видимость, явления погоды, количество и форму облачности, нижнюю и верхнюю границу облачности).


Погода в Львове - сегодня

Время (UTC), дата Ветер
(°,м/с) 
Видим.   Явления Облачность Т
(°С)
Тd
(°С)
f(%) Тe
(°С)
Pmin
(гПа)
dP
(гПа)
Po
(мм)
O2
(г/м3)
Тmin Tmax R s Состояние
почвы
09 17.06.18 060 (СВ) 10 км    8/6 840 м средняя 
[Sc|Ac trans]
+20.7 +12.2 58 +25  1015  -0.1  733  272           
12 17.06.18 040 (СВ) 10 км  слаб. ливневой дождь  10/6 1000 м кучево-дожд., средняя 
[Cb calv|Ac As]
+18.6 +14.1 75 +28  1015.1  -0.1  733  274           
15 17.06.18 360 (С) 10 км  в посл. час ливневой дождь  10/6 1140 м кучево-дожд., средняя 
[Cb calv|Ac As]
+18.4 +15 81 +29  1014.1  -1  733  273           
18 17.06.18 тихо ()   10 км  {ливн. осадки}  10/4 1000 м кучево-дожд., средняя 
[Cb calv|Ac As]
+18.1 +12.5 70 +23  1014.1  733  274    +21.9     
21 17.06.18 040 (СВ) 10 км    8/0 средняя 
[Ac trans]
+17.7 +13.4 76 +26  1014.5  0.2  733  275           
00 18.06.18 030 (СВ) 10 км  {ливн. осадки}  10/0 средняя 
[Ac trans]
+17.2 +13.8 80 +26  1014  -0.4  732  275      0.3     
03 18.06.18 040 (СВ) 10 км    10/0 средняя 
[Ac As]
+16.9 +14.9 88 +27  1014  -0.1  732  275           
06 18.06.18 050 (СВ) 10 км    10/6 300 м средняя 
[St|Ac As]
+18.2 +15.5 84 +29  1014.6  0.8  733  274  +16.8    0.3     
09 18.06.18 090 (В) 10 км    10/3 600 м кучево-дожд., средняя 
[Cb calv|Ac As]
+22.1 +15.7 67 +33  1014.9  0.7  734  270           
12 18.06.18 160 (Ю) 9000 м  гроза, ливневой дождь  10/4 600 м кучево-дожд., средняя 
[Cb calv|Ac As]
+20.6 +16.5 77 +33  1015.7  0.6  734  271      0.0     
15 18.06.18 тихо ()   10 км  {гроза, ливн. осадки}  8/4 1000 м кучево-дожд., средняя 
[Cb calv|Ac trans]
+22.4 +15.8 66 +33  1014.8  -0.6  734  270           
18 18.06.18 010 (С) 10 км  {гроза, ливн. осадки}  8/0 средняя 
[Ac trans]
+21.2 +16.3 74 +33  1016.1  734  271    +25.3     
21 18.06.18 тихо ()   10 км    8/0 средняя 
[Ac trans]
+18.3 +15.6 84 +29  1017.5  1.1  735  274           
00 19.06.18 тихо ()   7000 м  дымка  3/0 средняя 
[Ac trans]
+15.7 +14.3 91 +24  1017.9  735  277           
03 19.06.18 тихо ()   2000 м  местами туман поземный  8/0 средняя 
[Ac trans]
+15.8 +14.4 91 +24  1018.3  0.4  735  277           
06 19.06.18 тихо ()   10 км  {туман}  4/0 верхняя 
[Cc]
+21.6 +16.5 73 +34  1018.4  0.9  736  271  +15.3         
09 19.06.18 280 (З) 10 км    6/4 600 м верхняя 
[Cu hum|Ci fib]
+24.2 +15.7 59 +35  1018.4  0.3  736  269           
12 19.06.18 240 (ЮЗ) 10 км    8/8 1230 м кучево-дожд. 
[Cb calv]
+26.7 +14.1 46 +34  1017.6  -0.5  736  267           
15 19.06.18 270 (З) 10 км    6/6 1320 м 
[Cu med, cong]
+26.1 +16.1 54 +37  1017.4  -0.3  736  267           
18 19.06.18 340 (С) 10 км    3/0 средняя 
[Ac trans]
+24 +15.3 58 +34  1018.3  0.6  736  269    +27.7       
21 19.06.18 тихо ()   10 км    4/0 средняя 
[Ac trans]
+18.6 +16.8 89 +31  1020  737  274           
00 20.06.18 тихо ()   6000 м  дымка  8/0 средняя 
[Ac trans]
+17.3 +15.6 90 +28  1020.9  0.7  737  276           
03 20.06.18 тихо ()   10 км    4/0 средняя 
[Ac trans]
+15.5 +13.6 88 +22  1022.3  1.1  738  279           
06 20.06.18 300 (СЗ) 10 км    3/0 верхняя 
[Ci fib]
+22.5 +22.5 100 +48  1021.8  0.6  739  269  +15.2         
09 20.06.18 290 (З) 10 км    4/4 1000 м 
[Cu hum]
+24.2 +13.5 51 +31  1021.9  0.1  739  271           
Время (UTC), дата Ветер
(°,м/с) 
Видим.   Явления Облачность Т
(°С)
Тd
(°С)
f(%) Тe
(°С)
Pmin
(гПа)
dP
(гПа)
Po
(мм)
O2
(г/м3)
Тmin Tmax R s Состояние
почвы

Для получения пояснительной информации подведите курсор к названию столбца.

ПОГОДА в Львове - архив

Всё, что Вы хотите узнать о погоде в Львове - удобно и подробно!

Выберите нужную дату (начиная с 1 января 2015* года) и нажмите кнопку "Найти".
Будут отображены архивные сводки погоды по пункту Львов, начиная с указанной даты.


Отображать данные в формате CSV (для использования в таблицах Excel)


Внимание! Наш архив погоды предназначен исключительно для личного некоммерческого использования в познавательных целях. Если Вам необходимы официальные справки о состоянии погоды (для производственных, юридических, коммерческих и т.п. целей), обращайтесь в органы Росгидромета.

*Примечание: данная дата относится к архиву по метеостанциям СССР (Россия, СНГ, Балтия).
Архив по метеостанциям Зарубежной Европы и Азии (кроме Китая) хранится 10 дней, по другим регионам земного шара (Китай, Африка, Америка, Австралия, Океания) - 1 день.

Львов - район местоположения метеостанции


Название, широта, долгота, высота метеостанции:
Львов 49.8°ш. 23.9°д. 323 м над ур. моря [Украина]

Дополнительная информация

В oтличие oт бoльшинства пoгoдных сайтoв мы публикуем пoдрoбную метеoинфoрмацию в детальнoм прoфессиoнальнoм фoрмате.

Характеристики температуры и влажнoсти вoздуха измеряются на высoте 2 м в тени вдали oт зданий и деревьев.
Скoрoсть ветра измеряется на высoте 10 м (на урoвне рoста челoвека скoрoсть ветра ниже в 1.5-2 раза). Если метеoстанция нахoдится в гoрoде или в лесу, тo скoрoсть ветра занижена на 2-4 м/с пo сравнению с oткрытым местoм. Скoрoсть ветра над акватoриями крупных рек и oзёр, а также на вершинах хoлмoв на 2-5 м/с выше, чем в oбычных услoвиях.
Атмoсфернoе давление в разных тoчках местнoсти мoжет значительнo oтличаться oт давления на метеoстанции, в зависимoсти oт услoвий рельефа (при пoдъёме на 10 м давление пoнижается примернo на 1 мм рт.ст.).